GW0087 Weather Reports


time (UTC)temp
C
wind
direction
speed
KPH
gust
KPH
rain 1hr
cm
rain 24hr
cm
rain mn
cm
humidity
%
barometer
mb
20260509124029 20 284 0.0 6.4 0.00 0.00 0.00 88 1011.2
20260509123529 20 278 1.6 6.4 0.00 0.00 0.00 88 1011.0
20260509123037 20 302 0.0 9.7 0.00 0.00 0.00 89 1011.0
20260509122528 20 234 0.0 11.3 0.00 0.00 0.00 88 1011.2
20260509122029 20 264 3.2 16.1 0.00 0.00 0.00 89 1011.0
20260509121541 20 300 3.2 16.1 0.00 0.00 0.00 89 1011.0
20260509121029 21 0 1.6 11.3 0.00 0.00 0.00 89 1011.1
20260509120530 21 0 1.6 4.8 0.00 0.00 0.00 89 1011.1
20260509120036 21 294 0.0 4.8 0.00 0.00 0.00 89 1011.0
20260509115529 21 0 0.0 4.8 0.00 0.00 0.00 89 1011.0
20260509115029 21 324 0.0 4.8 0.00 0.00 0.00 89 1010.8
20260509114537 21 0 0.0 4.8 0.00 0.00 0.00 89 1010.6
20260509114029 21 0 0.0 1.6 0.00 0.00 0.00 89 1010.6
20260509113529 21 0 0.0 0.0 0.00 0.00 0.00 89 1010.2
20260509113043 21 0 0.0 0.0 0.00 0.00 0.00 89 1010.1
20260509112529 21 0 0.0 0.0 0.00 0.00 0.00 89 1009.9
20260509112029 21 0 0.0 0.0 0.00 0.00 0.00 89 1009.9
20260509111539 21 0 0.0 1.6 0.00 0.00 0.00 89 1009.9
20260509111029 21 0 0.0 1.6 0.00 0.00 0.00 89 1009.7
20260509110528 21 0 0.0 1.6 0.00 0.00 0.00 89 1009.7
20260509110038 21 0 0.0 0.0 0.00 0.00 0.00 89 1009.6
20260509105530 21 0 0.0 3.2 0.00 0.00 0.00 89 1009.6
20260509105030 21 0 0.0 3.2 0.00 0.00 0.00 89 1009.6
20260509104556 21 0 0.0 1.6 0.00 0.00 0.00 89 1009.7
20260509104029 21 0 0.0 1.6 0.00 0.00 0.00 89 1009.7
20260509103529 21 315 0.0 1.6 0.00 0.00 0.00 89 1009.6
20260509103040 21 315 0.0 0.0 0.00 0.00 0.00 89 1009.7
20260509102529 21 0 0.0 0.0 0.00 0.00 0.00 89 1009.8
20260509102030 21 0 0.0 0.0 0.00 0.00 0.00 89 1009.7
20260509101543 21 0 0.0 0.0 0.00 0.00 0.00 89 1009.6
20260509101031 21 0 0.0 0.0 0.00 0.00 0.00 89 1009.6
20260509100529 21 0 0.0 1.6 0.00 0.00 0.00 89 1009.6
20260509100040 21 0 0.0 1.6 0.00 0.00 0.00 89 1009.6
20260509095529 21 0 0.0 1.6 0.00 0.00 0.00 89 1009.6
20260509095028 21 0 0.0 1.6 0.00 0.00 0.00 89 1009.6
20260509094538 21 0 0.0 1.6 0.00 0.00 0.00 89 1009.5
20260509094029 21 0 0.0 1.6 0.00 0.00 0.00 89 1009.6
20260509093530 21 0 0.0 3.2 0.00 0.00 0.00 89 1009.4
20260509093038 21 0 0.0 3.2 0.00 0.00 0.00 88 1009.4
20260509092529 21 0 0.0 3.2 0.00 0.00 0.00 88 1009.0
20260509092029 21 0 0.0 4.8 0.00 0.00 0.00 88 1009.0
20260509091542 21 349 0.0 12.9 0.00 0.00 0.00 88 1008.5
20260509091029 21 0 1.6 12.9 0.00 0.00 0.00 88 1008.1
20260509090530 21 174 1.6 12.9 0.00 0.00 0.00 88 1007.9
20260509090052 21 172 1.6 11.3 0.00 0.00 0.00 88 1007.9
20260509085529 21 184 3.2 12.9 0.00 0.00 0.00 88 1007.6
20260509085029 21 155 4.8 12.9 0.00 0.00 0.00 88 1007.3
20260509084540 21 144 3.2 11.3 0.00 0.00 0.00 87 1007.5
20260509084029 21 0 1.6 14.5 0.00 0.00 0.00 87 1008.0
20260509083529 21 0 3.2 14.5 0.00 0.00 0.00 87 1008.5
20260509083036 21 0 0.0 9.7 0.00 0.00 0.00 87 1008.8
20260509082530 21 0 0.0 9.7 0.00 0.00 0.00 87 1008.9
20260509082029 21 183 0.0 4.8 0.00 0.00 0.00 87 1009.2
20260509081551 21 178 0.0 4.8 0.00 0.00 0.00 86 1009.2
20260509081029 21 0 0.0 4.8 0.00 0.00 0.00 86 1009.5
20260509080529 21 193 0.0 3.2 0.00 0.00 0.00 86 1009.9
20260509080038 21 0 0.0 3.2 0.00 0.00 0.00 86 1010.3
20260509075529 21 0 0.0 3.2 0.00 0.03 0.00 86 1010.0
20260509075031 21 0 0.0 1.6 0.00 0.03 0.00 86 1010.2
20260509074536 21 0 0.0 1.6 0.00 0.03 0.00 86 1010.3
20260509074029 21 0 0.0 1.6 0.00 0.03 0.00 86 1010.6
20260509073529 21 0 0.0 1.6 0.00 0.03 0.00 86 1010.7
20260509073046 21 0 0.0 3.2 0.00 0.03 0.00 86 1010.8
20260509072528 21 0 0.0 3.2 0.00 0.03 0.00 86 1011.0
20260509072028 21 0 0.0 3.2 0.00 0.03 0.00 86 1011.3
20260509071549 21 0 0.0 3.2 0.00 0.03 0.00 86 1011.4
20260509071029 21 0 0.0 3.2 0.00 0.03 0.00 85 1011.6
20260509070529 21 0 0.0 1.6 0.00 0.03 0.00 85 1011.7
20260509070043 21 0 0.0 3.2 0.00 0.03 0.00 85 1011.4
20260509065530 21 0 0.0 3.2 0.00 0.03 0.00 85 1011.3
20260509065028 21 0 0.0 3.2 0.00 0.03 0.00 85 1011.4
20260509064536 21 0 0.0 1.6 0.00 0.03 0.00 84 1011.2
20260509064030 21 0 0.0 1.6 0.00 0.03 0.00 84 1011.1
20260509063529 21 0 0.0 0.0 0.00 0.03 0.00 84 1010.9
20260509063059 21 0 0.0 0.0 0.00 0.03 0.00 84 1011.1
20260509062529 21 0 0.0 0.0 0.00 0.03 0.00 83 1011.1
20260509062030 21 0 0.0 0.0 0.00 0.03 0.00 83 1011.3
20260509061607 21 0 0.0 0.0 0.00 0.03 0.00 83 1011.2
20260509061033 21 0 0.0 0.0 0.00 0.03 0.00 83 1011.2
20260509060529 21 0 0.0 0.0 0.00 0.03 0.00 82 1011.4
20260509060056 22 0 0.0 0.0 0.00 0.03 0.00 82 1011.7
20260509055529 22 0 0.0 0.0 0.00 0.03 0.00 82 1011.7
20260509055028 22 0 0.0 0.0 0.00 0.03 0.00 82 1011.9
20260509054537 22 0 0.0 0.0 0.00 0.03 0.00 83 1011.6
20260509054029 22 0 0.0 0.0 0.00 0.03 0.00 83 1011.5
20260509053529 22 0 0.0 0.0 0.00 0.03 0.00 83 1012.1
20260509053042 22 0 0.0 0.0 0.00 0.03 0.00 82 1012.1
20260509052530 22 0 0.0 0.0 0.00 0.03 0.00 82 1012.3
20260509052029 22 0 0.0 0.0 0.00 0.03 0.00 82 1012.3
20260509051542 22 0 0.0 0.0 0.00 0.03 0.00 81 1011.8
20260509051029 22 0 0.0 0.0 0.00 0.03 0.00 81 1011.4
20260509050529 22 0 0.0 0.0 0.00 0.03 0.00 81 1011.2
20260509050043 22 0 0.0 0.0 0.00 0.03 0.00 81 1011.0
20260509045531 22 0 0.0 0.0 0.00 0.03 0.03 81 1010.7
20260509045029 22 0 0.0 0.0 0.00 0.03 0.03 80 1011.0
20260509044539 22 0 0.0 0.0 0.00 0.03 0.03 80 1011.1
20260509044028 22 0 0.0 0.0 0.00 0.03 0.03 80 1011.2
20260509043528 22 0 0.0 0.0 0.00 0.03 0.03 80 1010.9
20260509043044 22 0 0.0 4.8 0.00 0.03 0.03 80 1011.0
20260509042529 22 0 0.0 4.8 0.00 0.03 0.03 80 1011.0
20260509042030 22 123 0.0 4.8 0.00 0.03 0.03 80 1011.0
20260509041536 22 123 0.0 4.8 0.00 0.03 0.03 80 1011.2
20260509041029 22 117 1.6 4.8 0.00 0.03 0.03 80 1011.2
20260509040532 22 126 0.0 3.2 0.00 0.03 0.03 79 1011.3
20260509040037 22 0 0.0 1.6 0.00 0.03 0.03 80 1011.6
20260509035529 22 0 0.0 1.6 0.00 0.03 0.03 80 1011.8
20260509035029 22 0 0.0 1.6 0.00 0.03 0.03 79 1011.8
20260509034543 22 0 0.0 3.2 0.00 0.03 0.03 79 1011.6
20260509034029 22 0 0.0 3.2 0.00 0.03 0.03 79 1011.4
20260509033532 22 0 0.0 6.4 0.00 0.03 0.03 79 1011.3
20260509033039 22 0 0.0 6.4 0.00 0.03 0.03 79 1011.1
20260509032529 22 0 0.0 4.8 0.00 0.03 0.03 79 1011.0
20260509032029 22 0 0.0 4.8 0.00 0.03 0.03 79 1011.1
20260509031538 22 109 0.0 4.8 0.00 0.03 0.03 79 1010.9
20260509031030 22 146 0.0 4.8 0.00 0.03 0.03 79 1011.0
20260509030530 22 142 1.6 4.8 0.00 0.03 0.03 78 1010.9
20260509030041 22 132 0.0 3.2 0.00 0.03 0.03 78 1010.8
20260509025533 22 132 0.0 3.2 0.00 0.03 0.03 78 1010.7
20260509025033 22 0 0.0 3.2 0.00 0.03 0.03 78 1010.7
20260509024542 22 0 0.0 3.2 0.00 0.03 0.03 77 1010.6
20260509024029 22 0 0.0 4.8 0.00 0.03 0.03 77 1010.5
20260509023529 22 0 0.0 4.8 0.00 0.03 0.03 77 1010.4
20260509023041 22 0 0.0 4.8 0.00 0.03 0.03 77 1010.1
20260509022531 22 0 0.0 4.8 0.00 0.03 0.03 76 1010.0
20260509022031 22 0 0.0 4.8 0.00 0.03 0.03 77 1010.0
20260509021539 22 0 0.0 4.8 0.00 0.03 0.03 76 1010.0
20260509021028 22 0 0.0 4.8 0.00 0.03 0.03 76 1010.0
20260509020529 22 0 0.0 3.2 0.00 0.03 0.03 76 1009.9
20260509020051 22 0 0.0 3.2 0.00 0.03 0.03 76 1009.8
20260509015530 22 0 0.0 6.4 0.00 0.03 0.03 75 1009.8
20260509015029 22 0 0.0 6.4 0.00 0.03 0.03 75 1010.0
20260509014548 23 0 0.0 3.2 0.00 0.03 0.03 75 1010.1
20260509014029 23 0 0.0 4.8 0.00 0.03 0.03 75 1010.2
20260509013529 23 0 0.0 4.8 0.00 0.03 0.03 74 1010.1
20260509013043 23 0 1.6 4.8 0.00 0.03 0.03 74 1010.0
20260509012529 23 0 0.0 6.4 0.00 0.03 0.03 74 1010.0
20260509012029 23 0 0.0 6.4 0.00 0.03 0.03 74 1009.9
20260509011540 23 0 0.0 8.0 0.00 0.03 0.03 74 1009.9
20260509011029 23 0 0.0 8.0 0.00 0.03 0.03 73 1009.6
20260509010530 23 150 0.0 4.8 0.00 0.03 0.03 73 1009.5
20260509010047 23 150 0.0 4.8 0.00 0.03 0.03 73 1009.4
20260509005529 23 0 1.6 8.0 0.00 0.03 0.03 73 1009.5
20260509005030 23 0 0.0 8.0 0.00 0.03 0.03 72 1009.4
20260509004538 23 0 1.6 8.0 0.00 0.03 0.03 72 1009.3
20260509004029 23 0 0.0 4.8 0.00 0.03 0.03 71 1009.3
20260509003531 23 0 0.0 9.7 0.00 0.03 0.03 71 1009.3
20260509003045 23 155 0.0 11.3 0.00 0.03 0.03 71 1009.2
20260509002529 23 130 1.6 11.3 0.00 0.03 0.03 70 1009.2
20260509002029 23 130 0.0 6.4 0.00 0.03 0.03 70 1009.2
20260509001542 24 0 0.0 6.4 0.00 0.03 0.03 70 1009.3
20260509001030 24 126 0.0 6.4 0.00 0.03 0.03 70 1009.2
20260509000529 24 146 1.6 6.4 0.00 0.03 0.03 69 1009.5
20260509000040 24 0 0.0 8.0 0.00 0.03 0.03 69 1009.5
20260508235529 24 138 0.0 8.0 0.00 0.03 0.03 68 1009.6
20260508235026 24 0 0.0 4.8 0.00 0.03 0.03 68 1009.6
20260508234538 25 148 0.0 4.8 0.00 0.03 0.03 67 1009.5
20260508234032 25 0 0.0 6.4 0.00 0.03 0.03 67 1009.7
20260508233529 25 142 1.6 6.4 0.00 0.03 0.03 66 1009.8
20260508233036 25 0 0.0 1.6 0.00 0.03 0.03 66 1009.7
20260508232530 25 0 0.0 4.8 0.00 0.03 0.03 66 1009.7
20260508232029 25 150 0.0 6.4 0.00 0.03 0.03 66 1009.7
20260508231543 25 0 0.0 8.0 0.00 0.03 0.03 66 1009.8
20260508231030 25 169 0.0 8.0 0.00 0.03 0.03 65 1009.8
20260508230529 25 0 1.6 11.3 0.00 0.03 0.03 65 1009.6
20260508230041 25 150 3.2 11.3 0.00 0.03 0.03 65 1009.7
20260508225529 25 142 1.6 14.5 0.00 0.03 0.03 65 1009.8
20260508225029 25 0 3.2 14.5 0.00 0.03 0.03 65 1009.7
20260508224541 25 0 0.0 8.0 0.00 0.03 0.03 66 1009.7
20260508224029 25 0 1.6 8.0 0.00 0.03 0.03 66 1009.8
20260508223529 24 202 0.0 6.4 0.00 0.03 0.03 67 1009.7
20260508223041 24 0 1.6 11.3 0.00 0.03 0.03 67 1009.7
20260508222528 24 0 0.0 12.9 0.00 0.03 0.03 66 1009.8
20260508222029 24 0 3.2 12.9 0.00 0.03 0.03 66 1009.8
20260508221537 25 178 3.2 9.7 0.00 0.03 0.03 65 1009.8
20260508221030 25 201 1.6 9.7 0.00 0.03 0.03 65 1009.8
20260508220530 25 0 0.0 9.7 0.00 0.03 0.03 66 1009.9
20260508220036 25 0 0.0 4.8 0.00 0.03 0.03 66 1009.9
20260508215529 25 0 0.0 6.4 0.00 0.03 0.03 66 1009.9
20260508215029 25 146 0.0 9.7 0.00 0.03 0.03 66 1009.9
20260508214544 25 155 0.0 9.7 0.00 0.03 0.03 67 1009.9
20260508214030 24 0 1.6 11.3 0.00 0.03 0.03 67 1010.0
20260508213529 24 162 1.6 11.3 0.00 0.03 0.03 68 1010.0
20260508213041 24 79 0.0 12.9 0.00 0.03 0.03 69 1010.0
20260508212526 23 71 0.0 12.9 0.00 0.03 0.03 68 1009.8
20260508212029 23 132 3.2 12.9 0.00 0.03 0.03 68 1010.0
20260508211539 23 0 3.2 12.9 0.00 0.03 0.03 68 1010.0
20260508211029 23 129 3.2 11.3 0.00 0.03 0.03 68 1010.2
20260508210530 23 88 1.6 9.7 0.00 0.03 0.03 68 1009.9
20260508210038 23 105 3.2 9.7 0.00 0.03 0.03 67 1010.1
20260508205529 23 134 1.6 8.0 0.00 0.03 0.03 67 1010.6
20260508205029 23 0 1.6 8.0 0.00 0.03 0.03 67 1010.8
20260508204545 23 0 0.0 3.2 0.00 0.03 0.03 67 1011.0
20260508204028 23 0 0.0 3.2 0.00 0.03 0.03 66 1011.4
20260508203528 23 0 0.0 1.6 0.00 0.03 0.03 65 1011.4
20260508203043 23 0 0.0 3.2 0.00 0.03 0.03 65 1011.5
20260508202530 24 0 0.0 3.2 0.00 0.03 0.03 65 1011.8
20260508202029 24 0 0.0 3.2 0.00 0.03 0.03 64 1011.8
20260508201551 24 0 0.0 3.2 0.00 0.03 0.03 64 1011.7
20260508201029 25 0 0.0 3.2 0.00 0.03 0.03 63 1011.7
20260508200529 25 0 0.0 1.6 0.00 0.03 0.03 63 1011.7
20260508200038 25 0 0.0 4.8 0.00 0.03 0.03 63 1011.6
20260508195528 25 0 0.0 4.8 0.00 0.03 0.03 63 1011.6
20260508195029 25 0 0.0 3.2 0.00 0.03 0.03 62 1011.5
20260508194541 25 0 0.0 8.0 0.00 0.03 0.03 62 1011.5
20260508194028 25 0 0.0 8.0 0.00 0.03 0.03 62 1011.5
20260508193528 25 0 1.6 4.8 0.00 0.03 0.03 62 1011.6
20260508193037 26 0 0.0 6.4 0.00 0.03 0.03 61 1011.6
20260508192529 26 0 0.0 9.7 0.00 0.03 0.03 60 1011.7
20260508192028 26 137 0.0 11.3 0.00 0.03 0.03 60 1011.8
20260508191543 26 32 1.6 11.3 0.00 0.03 0.03 60 1011.8
20260508191029 26 0 0.0 11.3 0.00 0.03 0.03 59 1011.9
20260508190530 26 132 1.6 11.3 0.00 0.03 0.03 59 1011.9
20260508190044 26 189 0.0 9.7 0.00 0.03 0.03 60 1011.9
20260508185529 26 150 1.6 9.7 0.00 0.03 0.03 59 1012.0
20260508185029 26 131 0.0 9.7 0.00 0.03 0.03 60 1011.9
20260508184542 26 132 1.6 8.0 0.00 0.03 0.03 60 1012.0
20260508184028 26 0 0.0 6.4 0.00 0.03 0.03 59 1012.1
20260508183528 26 192 0.0 6.4 0.00 0.03 0.03 59 1012.1
20260508183037 26 0 0.0 8.0 0.00 0.03 0.03 59 1012.2
20260508182529 26 178 0.0 8.0 0.00 0.03 0.03 58 1012.3
20260508182028 26 135 1.6 6.4 0.00 0.03 0.03 58 1012.3
20260508181552 27 263 1.6 6.4 0.00 0.03 0.03 57 1012.3
20260508181031 27 171 0.0 11.3 0.00 0.03 0.03 57 1012.5
20260508180529 27 98 4.8 11.3 0.00 0.03 0.03 57 1012.7
20260508180044 27 0 3.2 9.7 0.00 0.03 0.03 59 1012.7
20260508175529 26 0 0.0 9.7 0.00 0.03 0.03 60 1012.8
20260508175030 26 0 0.0 9.7 0.00 0.03 0.03 59 1012.9
20260508174551 26 157 0.0 4.8 0.00 0.03 0.03 58 1012.9
20260508174029 26 0 0.0 6.4 0.00 0.03 0.03 58 1012.9
20260508173528 26 190 1.6 6.4 0.00 0.03 0.03 59 1012.9
20260508173044 26 0 0.0 8.0 0.00 0.03 0.03 59 1013.0
20260508172526 26 159 0.0 9.7 0.00 0.03 0.03 59 1013.2
20260508172026 26 148 1.6 9.7 0.00 0.03 0.03 59 1013.2
20260508171537 25 0 0.0 11.3 0.00 0.03 0.03 59 1013.1
20260508171025 25 132 1.6 11.3 0.00 0.03 0.03 60 1013.2
20260508170530 25 152 1.6 8.0 0.00 0.03 0.03 60 1013.5
20260508170043 25 0 0.0 8.0 0.00 0.03 0.03 60 1013.8
20260508165528 24 134 1.6 8.0 0.00 0.03 0.03 61 1014.0
20260508165028 24 0 0.0 6.4 0.00 0.03 0.03 64 1014.1
20260508164543 23 0 0.0 12.9 0.00 0.03 0.03 62 1014.2
20260508164029 23 0 0.0 12.9 0.00 0.03 0.03 63 1014.2
20260508163528 23 173 0.0 8.0 0.00 0.03 0.03 63 1014.4
20260508163044 23 96 0.0 6.4 0.00 0.03 0.03 63 1014.5
20260508162527 23 180 0.0 6.4 0.00 0.03 0.03 63 1014.6
20260508162028 23 0 0.0 6.4 0.00 0.03 0.03 63 1014.6
20260508161540 23 0 0.0 9.7 0.00 0.03 0.03 64 1014.6
20260508161029 22 0 1.6 11.3 0.00 0.03 0.03 65 1014.6
20260508160528 22 163 1.6 11.3 0.00 0.03 0.03 67 1014.6
20260508160037 21 211 1.6 11.3 0.00 0.03 0.03 69 1014.7
20260508155530 21 170 0.0 11.3 0.00 0.03 0.03 70 1014.9
20260508155029 21 170 0.0 11.3 0.00 0.03 0.03 71 1014.9
20260508154536 20 115 1.6 9.7 0.00 0.03 0.03 69 1014.9
20260508154029 20 146 3.2 8.0 0.00 0.03 0.03 70 1015.2
20260508153530 20 122 0.0 4.8 0.00 0.03 0.03 71 1015.3
20260508153036 20 142 0.0 9.7 0.00 0.03 0.03 72 1015.2
20260508152529 20 134 0.0 9.7 0.00 0.03 0.03 70 1015.2
20260508152030 20 146 1.6 8.0 0.00 0.03 0.03 70 1015.4
20260508151544 20 0 1.6 8.0 0.00 0.03 0.03 70 1015.5
20260508151029 20 0 0.0 6.4 0.00 0.03 0.03 71 1015.4
20260508150532 19 0 0.0 8.0 0.00 0.03 0.03 70 1015.4
20260508150040 19 0 0.0 8.0 0.00 0.03 0.03 71 1015.4
20260508145530 19 0 0.0 4.8 0.00 0.03 0.03 71 1015.4
20260508145032 19 0 0.0 6.4 0.00 0.03 0.03 71 1015.3
20260508144544 19 0 0.0 11.3 0.00 0.03 0.03 71 1015.3
20260508144030 19 103 1.6 11.3 0.00 0.03 0.03 71 1015.2
20260508143531 19 136 0.0 8.0 0.00 0.03 0.03 71 1015.3
20260508143044 19 142 1.6 11.3 0.00 0.03 0.03 71 1015.4
20260508142529 18 0 0.0 11.3 0.00 0.03 0.03 72 1015.5
20260508142030 18 0 1.6 11.3 0.00 0.03 0.03 73 1015.6
20260508141608 18 0 0.0 3.2 0.00 0.03 0.03 75 1015.5
20260508141029 18 0 0.0 8.0 0.00 0.03 0.03 75 1015.5
20260508140530 18 0 0.0 11.3 0.00 0.03 0.03 77 1015.5
20260508140043 18 156 1.6 11.3 0.00 0.03 0.03 78 1015.5
20260508135529 17 134 1.6 9.7 0.00 0.03 0.03 79 1015.6
20260508135030 17 0 0.0 9.7 0.00 0.03 0.03 80 1015.6
20260508134552 17 154 1.6 11.3 0.00 0.03 0.03 82 1015.4
20260508134029 17 0 0.0 11.3 0.00 0.03 0.03 82 1015.5
20260508133529 17 129 0.0 6.4 0.00 0.03 0.03 82 1015.4
20260508133038 16 0 0.0 9.7 0.00 0.03 0.03 83 1015.5
20260508132531 16 137 1.6 9.7 0.00 0.03 0.03 84 1015.4
20260508132030 16 0 0.0 8.0 0.00 0.03 0.03 85 1015.3
20260508131536 16 0 0.0 3.2 0.00 0.03 0.03 85 1015.4
20260508131032 16 0 0.0 3.2 0.00 0.03 0.03 85 1015.5
20260508130530 16 0 0.0 1.6 0.00 0.03 0.03 85 1015.6
20260508130043 16 0 0.0 3.2 0.00 0.03 0.03 86 1015.8
20260508125529 16 0 0.0 4.8 0.00 0.03 0.03 86 1015.7
20260508125029 16 0 0.0 4.8 0.00 0.03 0.03 86 1015.6
20260508124548 16 0 0.0 4.8 0.00 0.03 0.03 86 1015.8